COSMOS 2559 (707K)

Last updated on Thu Nov 21 2024 00:03:12 GMT+0000 (Coordinated Universal Time)

1 54031U 22130A 24325.14628766 -.00000058 00000+0 00000+0 0 9999 2 54031 64.5789 334.7514 0008317 232.2656 127.6888 2.13101359 16457
UTC large
Height (km)
Speed (km/s)
/
Latitude / Longitude
Inclination (degrees)
Orbital Period (minutes)
Azimuth
Elevation
Range (km)
Doppler Factor

Next 0 passes for location: London (51.5072 / 0.1276)

Sorry there are no passes over London.